Time,TemperatureF,DewpointF,PressureIn,WindDirection,WindDirectionDegrees,WindSpeedMPH,WindSpeedGustMPH,Humidity,HourlyPrecipIn,Conditions,Clouds,dailyrainin,SoftwareType,DateUTC
2013-02-06 00:06:00,45.3,41.0,30.14,ENE,70,0.0,2.0,86,0.00,,,0.00,weatherlink.com 1.10,2013-02-06 08:06:00,
2013-02-06 00:21:00,45.3,41.0,30.14,NE,52,3.0,4.0,85,0.00,,,0.00,weatherlink.com 1.10,2013-02-06 08:21:00,
2013-02-06 00:36:00,45.4,41.0,30.14,ENE,64,4.0,5.0,84,0.00,,,0.00,weatherlink.com 1.10,2013-02-06 08:36:00,
2013-02-06 00:51:00,45.3,41.0,30.14,NE,41,3.0,6.0,85,0.00,,,0.00,weatherlink.com 1.10,2013-02-06 08:51:00,
2013-02-06 01:06:00,45.2,41.0,30.13,NE,48,2.0,5.0,86,0.00,,,0.00,weatherlink.com 1.10,2013-02-06 09:06:00,
2013-02-06 01:21:00,44.8,41.0,30.13,North,1,1.0,5.0,87,0.00,,,0.00,weatherlink.com 1.10,2013-02-06 09:21:00,
2013-02-06 01:37:00,44.5,41.0,30.13,NE,49,2.0,4.0,88,0.00,,,0.00,weatherlink.com 1.10,2013-02-06 09:37:00,
2013-02-06 01:51:00,44.4,41.0,30.14,NNW,344,2.0,4.0,88,0.00,,,0.00,weatherlink.com 1.10,2013-02-06 09:51:00,
2013-02-06 02:06:00,44.5,41.0,30.14,ENE,57,1.0,8.0,88,0.00,,,0.00,weatherlink.com 1.10,2013-02-06 10:06:00,
2013-02-06 02:22:00,44.1,41.0,30.14,ENE,63,2.0,4.0,87,0.00,,,0.00,weatherlink.com 1.10,2013-02-06 10:22:00,
2013-02-06 02:36:00,43.9,41.0,30.13,ENE,57,1.0,5.0,88,0.00,,,0.00,weatherlink.com 1.10,2013-02-06 10:36:00,
2013-02-06 03:07:00,43.7,40.0,30.13,NE,41,3.0,4.0,88,0.00,,,0.00,weatherlink.com 1.10,2013-02-06 11:07:00,
2013-02-06 03:21:00,43.5,40.0,30.14,NE,55,2.0,3.0,88,0.00,,,0.00,weatherlink.com 1.10,2013-02-06 11:21:00,
2013-02-06 03:36:00,43.5,40.0,30.14,ENE,73,1.0,2.0,88,0.00,,,0.00,weatherlink.com 1.10,2013-02-06 11:36:00,
2013-02-06 03:52:00,43.6,40.0,30.14,ENE,61,1.0,2.0,88,0.00,,,0.00,weatherlink.com 1.10,2013-02-06 11:52:00,
2013-02-06 04:07:00,43.5,41.0,30.14,East,87,1.0,2.0,89,0.00,,,0.00,weatherlink.com 1.10,2013-02-06 12:07:00,
2013-02-06 04:22:00,43.6,40.0,30.14,East,84,1.0,1.0,88,0.00,,,0.00,weatherlink.com 1.10,2013-02-06 12:22:00,
2013-02-06 04:37:00,42.9,40.0,30.14,ENE,64,2.0,2.0,89,0.00,,,0.00,weatherlink.com 1.10,2013-02-06 12:37:00,
2013-02-06 04:52:00,42.9,40.0,30.15,ENE,58,2.0,3.0,89,0.00,,,0.00,weatherlink.com 1.10,2013-02-06 12:52:00,
2013-02-06 05:07:00,42.8,40.0,30.15,NE,41,2.0,3.0,89,0.00,,,0.00,weatherlink.com 1.10,2013-02-06 13:07:00,
2013-02-06 05:22:00,42.7,40.0,30.14,ENE,59,2.0,4.0,89,0.00,,,0.00,weatherlink.com 1.10,2013-02-06 13:22:00,
2013-02-06 05:37:00,42.6,40.0,30.14,NE,47,3.0,5.0,90,0.00,,,0.00,weatherlink.com 1.10,2013-02-06 13:37:00,
2013-02-06 05:52:00,42.6,40.0,30.15,NE,50,2.0,3.0,90,0.00,,,0.00,weatherlink.com 1.10,2013-02-06 13:52:00,
2013-02-06 06:07:00,42.5,40.0,30.15,NE,41,4.0,4.0,90,0.00,,,0.00,weatherlink.com 1.10,2013-02-06 14:07:00,
2013-02-06 06:37:00,42.6,40.0,30.16,NE,49,1.0,3.0,90,0.00,,,0.00,weatherlink.com 1.10,2013-02-06 14:37:00,
2013-02-06 06:52:00,42.5,40.0,30.16,ENE,59,1.0,5.0,89,0.00,,,0.00,weatherlink.com 1.10,2013-02-06 14:52:00,
2013-02-06 07:07:00,42.5,40.0,30.16,ENE,64,1.0,4.0,89,0.01,,,0.01,weatherlink.com 1.10,2013-02-06 15:07:00,
2013-02-06 07:22:00,42.8,40.0,30.16,NE,45,2.0,3.0,89,0.01,,,0.01,weatherlink.com 1.10,2013-02-06 15:22:00,
2013-02-06 07:37:00,42.8,40.0,30.16,ENE,68,1.0,3.0,88,0.01,,,0.01,weatherlink.com 1.10,2013-02-06 15:37:00,
2013-02-06 07:52:00,43.4,40.0,30.17,NE,50,2.0,4.0,88,0.01,,,0.01,weatherlink.com 1.10,2013-02-06 15:52:00,
2013-02-06 08:07:00,44.5,41.0,30.17,NE,41,2.0,4.0,86,0.00,,,0.01,weatherlink.com 1.10,2013-02-06 16:07:00,
2013-02-06 08:22:00,45.3,41.0,30.17,NE,37,0.0,3.0,84,0.00,,,0.01,weatherlink.com 1.10,2013-02-06 16:22:00,
2013-02-06 08:37:00,46.2,41.0,30.18,ENE,75,1.0,3.0,83,0.00,,,0.01,weatherlink.com 1.10,2013-02-06 16:37:00,
2013-02-06 08:52:00,47.6,42.0,30.17,NNE,22,0.0,1.0,81,0.00,,,0.01,weatherlink.com 1.10,2013-02-06 16:52:00,
2013-02-06 09:09:00,48.4,42.0,30.17,WSW,237,1.0,1.0,79,0.00,,,0.01,weatherlink.com 1.10,2013-02-06 17:09:00,
2013-02-06 09:22:00,48.4,41.0,30.18,WNW,302,1.0,3.0,76,0.00,,,0.01,weatherlink.com 1.10,2013-02-06 17:22:00,
2013-02-06 09:37:00,49.5,42.0,30.18,SW,235,0.0,1.0,75,0.00,,,0.01,weatherlink.com 1.10,2013-02-06 17:37:00,
2013-02-06 09:52:00,51.1,43.0,30.18,SW,222,0.0,2.0,74,0.00,,,0.01,weatherlink.com 1.10,2013-02-06 17:52:00,
2013-02-06 10:08:00,50.6,41.0,30.18,WNW,300,1.0,4.0,71,0.00,,,0.01,weatherlink.com 1.10,2013-02-06 18:08:00,
2013-02-06 10:22:00,50.3,42.0,30.19,NW,322,0.0,6.0,73,0.00,,,0.01,weatherlink.com 1.10,2013-02-06 18:22:00,
2013-02-06 10:37:00,50.7,43.0,30.19,SW,229,3.0,5.0,75,0.00,,,0.01,weatherlink.com 1.10,2013-02-06 18:37:00,
2013-02-06 11:07:00,52.1,44.0,30.18,SSW,195,0.0,4.0,73,0.00,,,0.01,weatherlink.com 1.10,2013-02-06 19:07:00,
2013-02-06 11:22:00,52.1,44.0,30.18,SW,218,1.0,6.0,75,0.00,,,0.01,weatherlink.com 1.10,2013-02-06 19:22:00,
2013-02-06 11:37:00,53.6,44.0,30.17,NW,308,3.0,6.0,71,0.00,,,0.01,weatherlink.com 1.10,2013-02-06 19:37:00,
2013-02-06 11:52:00,54.0,44.0,30.16,SSW,205,0.0,5.0,70,0.00,,,0.01,weatherlink.com 1.10,2013-02-06 19:52:00,
2013-02-06 12:07:00,54.7,45.0,30.16,SW,232,3.0,5.0,70,0.00,,,0.01,weatherlink.com 1.10,2013-02-06 20:07:00,
2013-02-06 12:22:00,55.0,44.0,30.16,West,266,3.0,6.0,67,0.00,,,0.01,weatherlink.com 1.10,2013-02-06 20:22:00,
2013-02-06 12:38:00,55.2,44.0,30.15,SW,215,4.0,7.0,67,0.00,,,0.01,weatherlink.com 1.10,2013-02-06 20:38:00,
2013-02-06 12:53:00,55.6,44.0,30.15,SW,218,5.0,6.0,66,0.00,,,0.01,weatherlink.com 1.10,2013-02-06 20:53:00,
2013-02-06 13:08:00,55.4,44.0,30.14,SE,140,2.0,7.0,65,0.00,,,0.01,weatherlink.com 1.10,2013-02-06 21:08:00,
2013-02-06 13:23:00,55.6,44.0,30.14,SSW,197,4.0,7.0,65,0.00,,,0.01,weatherlink.com 1.10,2013-02-06 21:23:00,
2013-02-06 13:38:00,55.1,43.0,30.13,SW,231,5.0,7.0,65,0.00,,,0.01,weatherlink.com 1.10,2013-02-06 21:38:00,
2013-02-06 13:53:00,55.9,44.0,30.12,SSE,166,6.0,8.0,64,0.00,,,0.01,weatherlink.com 1.10,2013-02-06 21:53:00,
2013-02-06 14:08:00,56.5,43.0,30.12,SE,146,5.0,7.0,62,0.00,,,0.01,weatherlink.com 1.10,2013-02-06 22:08:00,
2013-02-06 14:23:00,56.2,43.0,30.12,SSE,162,4.0,7.0,62,0.00,,,0.01,weatherlink.com 1.10,2013-02-06 22:23:00,
2013-02-06 14:38:00,56.6,44.0,30.11,WSW,240,9.0,9.0,62,0.00,,,0.01,weatherlink.com 1.10,2013-02-06 22:38:00,
2013-02-06 14:53:00,57.0,45.0,30.11,SW,214,4.0,10.0,65,0.00,,,0.01,weatherlink.com 1.10,2013-02-06 22:53:00,
2013-02-06 15:08:00,56.8,46.0,30.12,SSW,204,4.0,8.0,67,0.00,,,0.01,weatherlink.com 1.10,2013-02-06 23:08:00,
2013-02-06 15:23:00,57.4,45.0,30.12,SSW,202,4.0,8.0,64,0.00,,,0.01,weatherlink.com 1.10,2013-02-06 23:23:00,
2013-02-06 15:38:00,57.4,45.0,30.11,South,191,2.0,7.0,64,0.00,,,0.01,weatherlink.com 1.10,2013-02-06 23:38:00,
2013-02-06 15:53:00,57.3,46.0,30.12,SW,235,1.0,8.0,65,0.00,,,0.01,weatherlink.com 1.10,2013-02-06 23:53:00,
2013-02-06 16:08:00,57.5,46.0,30.12,SSE,159,3.0,8.0,65,0.00,,,0.01,weatherlink.com 1.10,2013-02-07 00:08:00,
2013-02-06 16:23:00,57.2,42.0,30.12,WNW,286,4.0,8.0,58,0.00,,,0.01,weatherlink.com 1.10,2013-02-07 00:23:00,
2013-02-06 16:38:00,56.5,41.0,30.12,WNW,300,4.0,7.0,57,0.00,,,0.01,weatherlink.com 1.10,2013-02-07 00:38:00,
2013-02-06 17:08:00,54.8,42.0,30.12,WNW,294,3.0,8.0,62,0.00,,,0.01,weatherlink.com 1.10,2013-02-07 01:08:00,
2013-02-06 17:23:00,54.0,42.0,30.12,NW,319,3.0,8.0,63,0.00,,,0.01,weatherlink.com 1.10,2013-02-07 01:23:00,
2013-02-06 17:38:00,53.0,41.0,30.12,NW,305,0.0,5.0,65,0.00,,,0.01,weatherlink.com 1.10,2013-02-07 01:38:00,
2013-02-06 17:53:00,51.8,42.0,30.12,West,267,0.0,6.0,69,0.00,,,0.01,weatherlink.com 1.10,2013-02-07 01:53:00,
2013-02-06 18:08:00,51.0,42.0,30.13,West,262,2.0,5.0,71,0.00,,,0.01,weatherlink.com 1.10,2013-02-07 02:08:00,
2013-02-06 18:23:00,50.5,42.0,30.13,WNW,290,2.0,2.0,72,0.00,,,0.01,weatherlink.com 1.10,2013-02-07 02:23:00,
2013-02-06 18:38:00,50.2,42.0,30.14,WNW,287,4.0,6.0,73,0.00,,,0.01,weatherlink.com 1.10,2013-02-07 02:38:00,
2013-02-06 18:53:00,49.7,42.0,30.14,West,276,2.0,7.0,74,0.00,,,0.01,weatherlink.com 1.10,2013-02-07 02:53:00,
2013-02-06 19:08:00,49.3,42.0,30.14,WNW,291,0.0,8.0,75,0.00,,,0.01,weatherlink.com 1.10,2013-02-07 03:08:00,
2013-02-06 19:23:00,48.8,42.0,30.14,WSW,254,2.0,4.0,76,0.00,,,0.01,weatherlink.com 1.10,2013-02-07 03:23:00,
2013-02-06 19:38:00,48.5,41.0,30.14,SW,236,4.0,10.0,76,0.00,,,0.01,weatherlink.com 1.10,2013-02-07 03:38:00,
2013-02-06 19:53:00,48.6,41.0,30.14,NW,304,4.0,8.0,75,0.00,,,0.01,weatherlink.com 1.10,2013-02-07 03:53:00,
2013-02-06 20:08:00,48.5,40.0,30.15,WNW,293,2.0,9.0,73,0.00,,,0.01,weatherlink.com 1.10,2013-02-07 04:08:00,
2013-02-06 20:23:00,48.5,40.0,30.15,WSW,240,3.0,10.0,73,0.00,,,0.01,weatherlink.com 1.10,2013-02-07 04:23:00,
2013-02-06 20:38:00,47.9,40.0,30.16,SW,231,0.0,3.0,74,0.00,,,0.01,weatherlink.com 1.10,2013-02-07 04:38:00,
2013-02-06 20:53:00,47.6,40.0,30.16,SW,226,1.0,4.0,75,0.00,,,0.01,weatherlink.com 1.10,2013-02-07 04:53:00,
2013-02-06 21:08:00,47.7,40.0,30.16,WSW,256,0.0,5.0,74,0.00,,,0.01,weatherlink.com 1.10,2013-02-07 05:08:00,
2013-02-06 21:23:00,46.9,39.0,30.16,ESE,120,0.0,0.0,75,0.00,,,0.01,weatherlink.com 1.10,2013-02-07 05:23:00,
2013-02-06 21:38:00,46.8,40.0,30.15,West,271,0.0,2.0,76,0.00,,,0.01,weatherlink.com 1.10,2013-02-07 05:38:00,
2013-02-06 21:53:00,46.3,39.0,30.15,SE,125,2.0,2.0,77,0.00,,,0.01,weatherlink.com 1.10,2013-02-07 05:53:00,
2013-02-06 22:08:00,46.1,40.0,30.15,SSE,159,1.0,2.0,78,0.00,,,0.01,weatherlink.com 1.10,2013-02-07 06:08:00,
2013-02-06 22:23:00,45.9,39.0,30.15,ESE,120,0.0,2.0,78,0.00,,,0.01,weatherlink.com 1.10,2013-02-07 06:23:00,
2013-02-06 22:38:00,45.6,40.0,30.15,SSE,153,2.0,4.0,81,0.00,,,0.01,weatherlink.com 1.10,2013-02-07 06:38:00,
2013-02-06 23:09:00,45.8,42.0,30.15,South,174,1.0,5.0,85,0.00,,,0.01,weatherlink.com 1.10,2013-02-07 07:09:00,
2013-02-06 23:23:00,45.9,43.0,30.15,ESE,115,3.0,4.0,88,0.00,,,0.01,weatherlink.com 1.10,2013-02-07 07:23:00,
2013-02-06 23:38:00,45.8,43.0,30.15,SE,129,3.0,5.0,88,0.00,,,0.01,weatherlink.com 1.10,2013-02-07 07:38:00,
2013-02-06 23:54:00,45.8,43.0,30.16,ESE,122,4.0,7.0,89,0.00,,,0.01,weatherlink.com 1.10,2013-02-07 07:54:00,